QPF
0.00 0.00 0.00 0.00 0.00 0.00 0.00 0.00 0.00 0.00 0.00 0.00 0.00 0.00 0.00 0.00 0.00 0.00 0.00 0.00 0.00 0.00 0.00 0.00 0.00 0.00 0.00 0.00 0.00 0.00 0.00 0.00 0.00 0.00 0.00 0.00 0.00 0.00 0.00 0.00 0.00 0.00 0.00 0.00
0.00 0.00 0.00 0.00 0.00 0.00 0.00 0.00 0.00 0.00 0.00 0.00 0.00 0.00 0.00 0.00 0.00 0.00 0.00 0.00 0.00 0.00 0.00 0.00 0.00 0.00 0.00 0.00 0.00 0.00 0.00 0.00 0.00 0.00 0.00 0.00 0.00 0.00 0.00 0.00 0.00 0.00 0.00 0.00
0.00 0.00 0.00 0.00 0.00 0.00 0.00 0.00 0.00 0.00 0.00 0.00 0.00 0.00 0.00 0.00 0.00 0.00 0.00 0.00 0.00 0.00 0.00 0.00 0.00 0.00 0.00 0.00 0.00 0.00 0.00 0.00 0.00 0.00 0.00 0.00 0.00 0.00 0.00 0.00 0.00 0.00 0.00 0.00
0.00 0.00 0.00 0.00 0.00 0.00 0.00 0.00 0.00 0.00 0.00 0.00 0.00 0.00 0.00 0.00 0.00 0.00 0.00 0.00 0.00 0.00 0.00 0.00 0.00 0.00 0.00 0.00 0.00 0.01 0.01 0.01 0.01 0.01 0.01 0.01 0.00 0.00 0.00 0.00 0.00 0.00 0.00 0.00
0.00 0.00 0.00 0.00 0.00 0.00 0.00 0.00 0.00 0.00 0.00 0.00 0.00 0.00 0.00 0.00 0.00 0.00 0.00 0.00 0.00 0.00 0.00 0.00 0.00 0.00 0.00 0.00 0.00 0.01 0.00 0.00 0.00 0.00 0.00 0.00 0.00 0.00 0.00 0.00 0.00 0.00 0.00 0.00
0.00 0.00 0.00 0.00 0.00 0.00 0.00 0.00 0.00 0.00 0.00 0.00 0.00 0.00 0.00 0.00 0.00 0.00 0.00 0.00 0.00 0.00 0.00 0.00 0.00 0.00 0.00 0.00 0.00 0.00 0.00 0.00 0.00 0.00 0.00 0.00 0.00 0.00 0.00 0.00 0.00 0.00 0.00 0.00
0.00 0.00 0.00 0.00 0.00 0.00 0.00 0.00 0.00 0.00 0.00 0.00 0.00 0.00 0.00 0.00 0.00 0.00 0.00 0.00 0.00 0.00 0.00 0.00 0.00 0.00 0.00 0.00 0.00 0.00 0.00 0.00 0.00 0.00 0.00 0.00 0.00 0.00 0.00 0.00 0.00 0.00 0.00 0.00
0.00 0.00 0.00 0.00 0.00 0.00 0.00 0.00 0.00 0.00 0.00 0.00 0.00 0.00 0.00 0.00 0.00 0.00 0.00 0.00 0.00 0.00 0.00 0.00 0.00 0.00 0.00 0.00 0.00 0.00 0.00 0.00 0.00 0.00 0.00 0.00 0.00 0.00 0.00 0.00 0.00 0.00 0.00 0.00
0.00 0.00 0.00 0.00 0.00 0.00 0.00 0.00 0.00 0.00 0.00 0.00 0.00 0.00 0.00 0.00 0.00 0.00 0.00 0.00 0.00 0.00 0.00 0.00 0.00 0.00 0.00 0.00 0.00 0.00 0.00 0.00 0.00 0.00 0.00 0.00 0.00 0.00 0.00 0.00 0.00 0.00 0.00 0.00
0.00 0.00 0.00 0.00 0.00 0.00 0.00 0.00 0.00 0.00 0.00 0.00 0.00 0.00 0.00 0.00 0.00 0.00 0.00 0.00 0.00 0.00 0.00 0.00 0.00 0.00 0.00 0.00 0.00 0.00 0.00 0.00 0.00 0.00 0.00 0.00 0.00 0.00 0.00 0.00 0.00 0.00 0.00 0.00
0.00 0.00 0.00 0.00 0.00 0.00 0.00 0.00 0.00 0.00 0.00 0.00 0.00 0.00 0.00 0.00 0.00 0.00 0.00 0.00 0.00 0.00 0.00 0.00 0.00 0.00 0.00 0.00 0.00 0.00 0.00 0.00 0.00 0.00 0.00 0.00 0.00 0.00 0.00 0.00 0.00 0.00 0.00 0.00
0.00 0.00 0.00 0.00 0.00 0.00 0.00 0.00 0.00 0.00 0.00 0.00 0.00 0.00 0.00 0.00 0.00 0.00 0.00 0.00 0.00 0.00 0.00 0.00 0.00 0.00 0.00 0.00 0.00 0.00 0.00 0.00 0.00 0.00 0.00 0.00 0.00 0.00 0.00 0.00 0.00 0.00 0.00 0.00
0.00 0.00 0.00 0.00 0.00 0.00 0.00 0.00 0.00 0.00 0.00 0.00 0.00 0.00 0.00 0.00 0.00 0.00 0.00 0.00 0.00 0.00 0.00 0.00 0.00 0.00 0.00 0.00 0.00 0.00 0.00 0.00 0.00 0.00 0.00 0.00 0.00 0.00 0.00 0.00 0.00 0.00 0.00 0.00
0.00 0.00 0.00 0.00 0.00 0.00 0.00 0.00 0.00 0.00 0.00 0.00 0.00 0.00 0.00 0.00 0.00 0.00 0.00 0.00 0.00 0.00 0.00 0.00 0.00 0.00 0.00 0.00 0.00 0.00 0.00 0.00 0.00 0.00 0.00 0.00 0.00 0.00 0.00 0.00 0.00 0.00 0.00 0.00
0.00 0.00 0.00 0.00 0.00 0.00 0.00 0.00 0.00 0.00 0.00 0.00 0.00 0.00 0.00 0.00 0.00 0.00 0.00 0.00 0.00 0.00 0.00 0.00 0.00 0.00 0.00 0.00 0.00 0.00 0.00 0.00 0.00 0.00 0.00 0.00 0.00 0.00 0.00 0.00 0.00 0.00 0.00 0.00
0.00 0.00 0.00 0.00 0.00 0.00 0.00 0.00 0.00 0.00 0.00 0.00 0.00 0.00 0.00 0.00 0.00 0.00 0.00 0.00 0.00 0.00 0.00 0.00 0.00 0.00 0.00 0.00 0.00 0.00 0.00 0.00 0.00 0.00 0.00 0.00 0.00 0.00 0.00 0.00 0.00 0.00 0.00 0.00
0.00 0.00 0.00 0.00 0.00 0.00 0.00 0.00 0.00 0.00 0.00 0.00 0.00 0.00 0.00 0.00 0.00 0.00 0.00 0.00 0.00 0.00 0.00 0.00 0.00 0.00 0.00 0.00 0.00 0.00 0.00 0.00 0.00 0.00 0.00 0.00 0.00 0.00 0.00 0.00 0.00 0.00 0.00 0.00
0.00 0.00 0.00 0.00 0.00 0.00 0.00 0.00 0.00 0.00 0.00 0.00 0.00 0.00 0.00 0.00 0.00 0.00 0.00 0.00 0.00 0.00 0.00 0.00 0.00 0.00 0.00 0.00 0.00 0.00 0.00 0.00 0.00 0.00 0.00 0.00 0.00 0.00 0.00 0.00 0.00 0.00 0.01 0.01
0.00 0.00 0.00 0.00 0.00 0.00 0.00 0.00 0.00 0.00 0.00 0.00 0.00 0.00 0.00 0.00 0.00 0.00 0.00 0.00 0.00 0.00 0.00 0.00 0.00 0.00 0.00 0.00 0.00 0.00 0.00 0.00 0.00 0.00 0.00 0.00 0.00 0.00 0.00 0.00 0.00 0.00 0.00 0.00
0.00 0.00 0.00 0.00 0.00 0.00 0.00 0.00 0.00 0.00 0.00 0.00 0.00 0.00 0.00 0.00 0.00 0.00 0.00 0.00 0.00 0.00 0.00 0.00 0.00 0.00 0.00 0.00 0.00 0.00 0.00 0.00 0.00 0.00 0.00 0.00 0.00 0.00 0.00 0.00 0.00 0.00 0.00 0.00
0.00 0.00 0.00 0.00 0.00 0.00 0.00 0.00 0.00 0.00 0.00 0.00 0.00 0.00 0.00 0.00 0.01 0.00 0.00 0.00 0.00 0.00 0.00 0.00 0.00 0.00 0.00 0.00 0.00 0.00 0.00 0.00 0.00 0.00 0.00 0.00 0.00 0.00 0.00 0.00 0.00 0.00 0.00 0.00
0.00 0.00 0.00 0.00 0.00 0.00 0.00 0.00 0.00 0.00 0.00 0.00 0.00 0.00 0.00 0.00 0.00 0.00 0.00 0.00 0.00 0.00 0.00 0.00 0.00 0.00 0.00 0.00 0.00 0.00 0.00 0.00 0.00 0.00 0.00 0.00 0.00 0.00 0.00 0.00 0.00 0.00 0.00 0.00
0.00 0.00 0.00 0.00 0.00 0.00 0.00 0.00 0.00 0.00 0.00 0.00 0.00 0.00 0.00 0.00 0.00 0.00 0.00 0.00 0.00 0.00 0.00 0.00 0.00 0.00 0.00 0.00 0.00 0.00 0.00 0.00 0.00 0.00 0.00 0.00 0.00 0.00 0.00 0.00 0.00 0.00 0.00 0.00
0.00 0.00 0.00 0.00 0.00 0.00 0.00 0.00 0.00 0.00 0.00 0.00 0.00 0.00 0.00 0.00 0.00 0.00 0.00 0.00 0.00 0.00 0.00 0.00 0.00 0.00 0.00 0.00 0.00 0.00 0.00 0.00 0.00 0.00 0.00 0.00 0.00 0.00 0.00 0.00 0.00 0.00 0.00 0.00
0.00 0.00 0.00 0.00 0.00 0.00 0.00 0.00 0.00 0.00 0.00 0.00 0.00 0.00 0.00 0.00 0.00 0.00 0.00 0.00 0.00 0.00 0.00 0.00 0.00 0.00 0.00 0.00 0.00 0.00 0.00 0.00 0.00 0.00 0.00 0.00 0.00 0.00 0.00 0.00 0.00 0.00 0.00 0.00
0.00 0.00 0.00 0.00 0.00 0.00 0.00 0.00 0.00 0.00 0.00 0.00 0.00 0.00 0.00 0.00 0.00 0.00 0.00 0.00 0.00 0.00 0.00 0.00 0.00 0.00 0.00 0.00 0.00 0.00 0.00 0.00 0.00 0.00 0.00 0.00 0.00 0.00 0.00 0.00 0.00 0.00 0.00 0.00
MSLP
1013.15 1012.98 1013.72 1014.17 1014.16 1014.06 1014.07 1014.19 1014.45 1015.00 1015.62 1015.94 1017.06 1017.96 1018.77 1019.12 1018.93 1018.93 1018.94 1018.66 1018.24 1018.02 1017.97 1017.74 1017.63 1017.69 1017.70 1017.86 1018.26 1018.56 1018.86 1019.22 1019.17 1018.97 1018.98 1018.99 1018.85 1018.82 1018.56 1018.59 1018.76 1018.45 1018.22 1017.89
1013.67 1013.97 1014.82 1014.81 1014.72 1014.58 1014.60 1014.75 1015.11 1015.48 1015.90 1016.23 1017.53 1018.29 1019.12 1019.43 1019.62 1019.78 1019.67 1019.42 1019.17 1018.79 1018.43 1018.45 1018.26 1018.12 1018.10 1018.39 1018.70 1018.92 1019.12 1019.32 1019.43 1019.36 1019.34 1019.21 1019.08 1018.79 1018.51 1018.43 1018.52 1018.32 1018.08 1017.97
1014.18 1015.47 1015.24 1015.00 1015.24 1015.21 1015.51 1015.48 1015.71 1015.93 1016.28 1016.89 1017.52 1018.27 1018.97 1019.69 1019.85 1019.95 1020.02 1020.00 1019.82 1019.63 1019.35 1019.14 1019.08 1019.08 1018.99 1019.01 1019.07 1019.03 1018.95 1018.88 1018.93 1018.87 1018.70 1018.63 1018.58 1018.54 1018.45 1018.43 1018.37 1018.13 1018.01 1017.82
1015.28 1015.94 1015.64 1015.48 1015.85 1016.15 1016.05 1016.43 1016.45 1016.44 1016.65 1016.70 1017.72 1017.46 1019.00 1019.57 1019.80 1019.96 1020.13 1020.14 1020.07 1019.99 1019.80 1019.62 1019.33 1019.20 1019.32 1019.61 1019.82 1019.75 1019.74 1019.71 1019.47 1019.48 1019.28 1019.32 1019.06 1018.60 1018.15 1018.26 1018.15 1018.04 1017.88 1017.75
1016.20 1016.20 1016.11 1016.07 1016.67 1016.79 1016.93 1017.09 1017.20 1017.18 1017.02 1017.38 1017.69 1018.00 1018.71 1019.56 1019.76 1020.13 1020.37 1020.48 1020.55 1020.58 1020.55 1020.25 1020.07 1019.80 1019.60 1019.50 1019.38 1019.32 1019.27 1019.29 1019.33 1019.24 1019.30 1019.13 1018.78 1018.56 1018.29 1018.16 1017.91 1017.62 1017.36 1017.35
1016.27 1016.75 1016.85 1016.93 1017.29 1017.51 1017.56 1017.55 1017.82 1017.96 1017.75 1017.43 1017.97 1018.40 1018.44 1019.16 1019.82 1020.31 1020.64 1020.80 1020.92 1020.88 1020.83 1020.77 1020.64 1020.46 1020.30 1020.06 1019.91 1019.79 1019.70 1019.64 1019.36 1019.29 1019.29 1019.35 1019.03 1018.86 1018.35 1017.86 1017.45 1016.51 1016.23 1016.26
1016.85 1017.23 1017.42 1017.60 1017.39 1017.77 1017.80 1017.96 1017.93 1018.02 1017.97 1017.91 1018.67 1018.83 1018.78 1019.80 1020.35 1020.66 1020.94 1021.24 1021.35 1021.30 1021.10 1020.83 1020.64 1020.44 1020.35 1020.29 1020.26 1020.09 1019.81 1019.55 1019.29 1019.08 1018.88 1018.75 1018.75 1018.60 1018.04 1017.45 1016.75 1016.08 1015.46 1015.39
1017.21 1017.84 1018.17 1018.36 1018.51 1018.67 1019.03 1019.22 1019.28 1019.19 1019.13 1018.86 1019.08 1018.76 1019.32 1020.39 1020.96 1021.25 1021.46 1021.59 1021.60 1021.42 1021.27 1021.07 1020.89 1020.70 1020.34 1020.23 1020.11 1019.87 1019.54 1019.27 1019.03 1018.77 1018.62 1018.56 1018.34 1017.93 1017.52 1016.97 1016.60 1015.92 1015.30 1014.92
1018.03 1018.68 1019.17 1019.29 1019.32 1019.48 1019.62 1020.22 1021.04 1020.68 1020.97 1020.28 1019.18 1019.75 1020.15 1020.65 1020.97 1021.29 1021.55 1021.68 1021.53 1021.50 1021.41 1021.08 1020.81 1020.62 1020.48 1020.20 1019.88 1019.50 1019.05 1018.73 1018.56 1018.23 1018.07 1017.77 1017.51 1017.22 1016.89 1016.58 1016.22 1015.51 1015.13 1014.79
1018.95 1019.26 1019.72 1019.84 1019.89 1020.18 1020.04 1021.14 1021.33 1021.41 1021.14 1020.18 1019.41 1019.55 1019.18 1020.40 1020.85 1021.45 1021.63 1021.65 1021.68 1021.50 1021.08 1020.67 1020.41 1020.16 1020.00 1019.76 1019.42 1019.00 1018.64 1018.17 1017.80 1017.62 1017.43 1017.00 1016.78 1016.56 1016.16 1015.84 1015.53 1015.31 1014.85 1014.53
1019.57 1020.01 1020.35 1020.40 1020.29 1020.45 1020.93 1021.16 1021.87 1022.30 1022.19 1021.57 1020.27 1019.29 1019.93 1020.38 1021.06 1021.38 1021.58 1021.73 1021.54 1021.11 1020.64 1020.22 1019.98 1019.81 1019.60 1019.28 1018.85 1018.49 1018.13 1017.68 1017.35 1017.15 1016.89 1016.65 1016.30 1015.96 1015.50 1015.17 1014.82 1014.58 1014.24 1014.01
1020.61 1020.76 1020.62 1020.90 1021.07 1021.35 1021.43 1021.50 1021.92 1022.25 1022.40 1022.26 1021.94 1020.13 1020.39 1020.68 1021.31 1021.78 1021.83 1021.70 1021.42 1021.08 1020.54 1020.12 1019.65 1019.22 1018.85 1018.59 1018.25 1017.87 1017.50 1017.24 1016.86 1016.84 1016.61 1016.39 1016.05 1015.57 1015.10 1014.52 1014.08 1013.78 1013.36 1013.20
1020.65 1021.21 1021.18 1021.12 1021.45 1021.41 1021.37 1021.61 1022.04 1022.61 1022.94 1022.30 1021.88 1020.47 1020.94 1021.31 1021.56 1021.78 1021.71 1021.51 1021.12 1020.72 1020.12 1019.70 1019.16 1018.69 1018.34 1017.90 1017.64 1017.37 1017.08 1016.84 1016.64 1016.37 1016.24 1015.77 1015.47 1015.25 1014.73 1014.09 1013.62 1013.43 1013.30 1012.93
1020.86 1021.38 1021.13 1020.91 1020.82 1021.14 1021.41 1021.53 1021.90 1022.29 1022.29 1021.51 1021.26 1020.38 1020.57 1020.88 1021.16 1021.35 1021.26 1021.02 1020.46 1019.93 1019.51 1019.00 1018.52 1018.13 1017.77 1017.42 1017.25 1017.01 1016.74 1016.82 1016.50 1016.14 1015.63 1015.16 1014.88 1014.66 1014.25 1013.63 1013.16 1012.99 1012.75 1012.36
1021.22 1021.32 1021.59 1021.25 1021.24 1021.44 1021.29 1021.29 1021.47 1021.79 1021.63 1021.75 1020.95 1020.98 1020.80 1021.03 1021.30 1021.33 1021.32 1020.70 1020.02 1019.35 1018.89 1018.53 1018.13 1017.63 1017.36 1017.06 1016.87 1016.66 1016.60 1016.21 1015.93 1015.61 1015.17 1014.64 1014.28 1013.96 1013.58 1013.20 1012.67 1012.20 1011.78 1011.47
1021.84 1021.75 1021.86 1021.39 1021.32 1021.46 1021.33 1021.14 1021.43 1021.53 1021.64 1021.74 1021.47 1020.98 1021.15 1021.45 1021.25 1020.93 1020.74 1020.17 1019.63 1019.07 1018.69 1018.28 1017.73 1017.35 1017.16 1016.90 1016.52 1016.31 1016.05 1015.72 1015.48 1014.93 1014.37 1013.90 1013.47 1013.07 1012.77 1012.36 1011.86 1011.48 1011.14 1010.88
1021.79 1021.90 1022.07 1021.44 1021.74 1021.68 1021.31 1021.05 1021.44 1021.72 1021.94 1021.95 1021.63 1021.17 1021.41 1021.24 1020.99 1020.79 1020.38 1019.95 1019.37 1018.92 1018.51 1017.90 1017.49 1017.27 1017.17 1016.79 1016.45 1016.01 1015.61 1015.20 1014.70 1014.12 1013.56 1013.07 1012.66 1012.26 1011.86 1011.50 1011.11 1010.75 1010.35 1010.06
1021.98 1022.24 1022.41 1021.90 1022.10 1021.75 1021.54 1021.94 1022.10 1022.18 1022.13 1021.90 1021.67 1021.61 1021.52 1021.22 1020.93 1020.70 1020.26 1019.70 1019.32 1018.91 1018.39 1017.74 1017.47 1017.33 1017.00 1016.55 1016.01 1015.48 1015.03 1014.49 1013.90 1013.25 1012.69 1012.21 1011.77 1011.39 1011.03 1010.69 1010.36 1010.05 1009.70 1009.39
1022.11 1022.24 1022.34 1022.45 1022.15 1021.36 1021.77 1022.15 1022.52 1022.66 1022.11 1021.78 1021.81 1021.59 1021.24 1020.94 1020.82 1019.95 1019.69 1019.60 1019.46 1019.13 1018.57 1018.01 1017.60 1017.12 1016.61 1016.09 1015.47 1014.89 1014.29 1013.72 1013.02 1012.27 1011.73 1011.31 1010.98 1010.62 1010.27 1009.94 1009.62 1009.31 1009.01 1008.66
1022.49 1022.51 1022.41 1022.73 1022.31 1021.44 1021.44 1022.15 1022.62 1022.99 1022.17 1021.73 1021.73 1021.39 1020.97 1020.96 1020.25 1018.95 1019.14 1019.29 1019.12 1018.99 1018.60 1018.15 1017.51 1016.92 1016.33 1015.59 1015.02 1014.30 1013.49 1012.82 1012.04 1011.38 1010.91 1010.54 1010.25 1009.93 1009.62 1009.24 1008.90 1008.64 1008.32 1008.06
1022.18 1022.38 1022.16 1022.17 1022.15 1021.32 1021.57 1022.13 1022.75 1022.52 1021.83 1021.40 1021.43 1021.10 1020.85 1020.68 1020.29 1019.57 1019.24 1019.00 1018.88 1018.67 1018.26 1017.72 1017.14 1016.48 1015.79 1015.10 1014.44 1013.60 1012.80 1011.97 1011.21 1010.65 1010.23 1009.82 1009.53 1009.28 1008.91 1008.57 1008.27 1007.94 1007.65 1007.30
1021.41 1021.92 1022.10 1022.36 1021.96 1021.28 1021.45 1022.24 1022.26 1021.31 1021.19 1021.22 1021.02 1020.78 1020.62 1020.40 1020.00 1019.66 1019.38 1019.03 1018.66 1018.04 1017.59 1017.25 1016.68 1015.93 1015.19 1014.51 1013.83 1012.95 1012.15 1011.21 1010.47 1009.93 1009.58 1009.21 1008.95 1008.62 1008.36 1008.03 1007.64 1007.29 1007.05 1006.79
1021.42 1021.36 1021.53 1021.65 1020.76 1020.77 1021.04 1020.75 1020.86 1021.21 1021.14 1020.87 1020.89 1020.54 1020.38 1020.23 1019.84 1019.69 1019.34 1018.86 1018.55 1018.24 1017.64 1017.09 1016.44 1015.53 1014.78 1013.93 1013.15 1012.32 1011.28 1010.53 1009.82 1009.30 1009.08 1008.82 1008.46 1008.27 1007.86 1007.48 1007.01 1006.60 1006.36 1006.23
1021.03 1021.38 1021.23 1021.16 1020.39 1020.38 1020.52 1020.79 1020.80 1020.87 1020.82 1020.59 1020.52 1020.37 1020.23 1020.11 1020.01 1019.69 1019.30 1018.76 1018.50 1018.09 1017.47 1016.82 1016.06 1015.20 1014.26 1013.35 1012.44 1011.64 1010.67 1009.85 1009.24 1009.04 1008.79 1008.56 1008.25 1007.85 1007.59 1007.44 1006.92 1006.21 1005.94 1005.74
1020.65 1021.07 1020.60 1020.35 1020.01 1019.98 1019.95 1020.16 1020.26 1020.29 1020.29 1020.22 1020.09 1020.06 1020.14 1020.28 1020.00 1019.74 1019.28 1018.87 1018.56 1017.97 1017.25 1016.60 1015.85 1014.97 1013.99 1013.03 1012.06 1011.02 1010.01 1009.37 1009.03 1008.88 1008.66 1008.36 1008.00 1007.70 1007.50 1007.47 1007.33 1006.80 1006.43 1006.25
1020.12 1019.77 1019.90 1019.38 1019.29 1019.63 1019.58 1019.68 1019.92 1019.96 1019.83 1019.82 1019.95 1019.89 1020.10 1020.39 1020.08 1019.81 1019.39 1019.07 1018.46 1017.78 1017.07 1016.32 1015.55 1014.66 1013.71 1012.87 1011.84 1010.83 1009.98 1009.33 1008.94 1008.81 1008.59 1008.33 1008.02 1007.80 1007.67 1007.56 1007.43 1007.18 1006.88 1006.50
Thickness
5734 5729 5710 5711 5714 5717 5713 5708 5703 5705 5708 5702 5686 5682 5680 5682 5683 5679 5677 5678 5681 5681 5682 5683 5683 5683 5681 5679 5674 5670 5665 5660 5659 5660 5657 5657 5657 5658 5658 5654 5651 5651 5653 5656
5723 5707 5709 5713 5711 5710 5708 5702 5696 5702 5703 5700 5680 5673 5671 5671 5666 5663 5662 5663 5663 5666 5668 5667 5666 5666 5666 5661 5657 5654 5652 5648 5645 5644 5642 5642 5643 5645 5646 5643 5640 5640 5642 5643
5708 5699 5708 5708 5701 5700 5695 5693 5691 5689 5691 5685 5676 5664 5660 5659 5658 5657 5653 5649 5649 5648 5648 5649 5647 5646 5646 5644 5643 5640 5638 5638 5636 5634 5632 5632 5632 5631 5632 5632 5631 5632 5633 5634
5699 5699 5699 5699 5691 5691 5684 5690 5687 5684 5677 5673 5666 5662 5646 5647 5646 5644 5641 5638 5635 5633 5634 5634 5635 5635 5632 5627 5625 5624 5622 5619 5620 5617 5617 5615 5615 5617 5622 5621 5622 5621 5623 5623
5684 5688 5689 5688 5683 5687 5682 5682 5675 5672 5671 5661 5658 5652 5643 5638 5632 5630 5628 5625 5621 5618 5614 5614 5613 5613 5616 5616 5615 5614 5613 5611 5608 5606 5602 5601 5602 5604 5607 5608 5609 5610 5613 5614
5688 5692 5687 5685 5683 5680 5678 5675 5665 5657 5656 5649 5644 5641 5639 5631 5624 5620 5615 5611 5607 5604 5602 5599 5597 5596 5595 5596 5594 5594 5593 5591 5593 5591 5588 5585 5585 5586 5590 5595 5597 5605 5609 5609
5677 5674 5681 5682 5677 5677 5674 5663 5652 5646 5643 5640 5633 5630 5631 5619 5615 5609 5602 5595 5591 5588 5586 5586 5585 5582 5579 5577 5575 5575 5574 5574 5575 5575 5575 5573 5571 5570 5574 5578 5585 5592 5597 5598
5665 5657 5664 5671 5664 5657 5649 5648 5638 5620 5622 5631 5631 5623 5619 5610 5600 5593 5586 5581 5576 5574 5571 5568 5566 5565 5565 5563 5560 5559 5558 5558 5557 5558 5559 5557 5557 5559 5562 5566 5569 5575 5580 5581
5659 5651 5658 5657 5656 5653 5642 5631 5624 5616 5602 5603 5619 5606 5603 5596 5589 5582 5574 5568 5564 5559 5555 5553 5551 5549 5545 5544 5544 5544 5546 5546 5545 5546 5545 5546 5547 5547 5549 5551 5553 5559 5560 5562
5653 5643 5645 5646 5649 5645 5641 5627 5615 5608 5594 5598 5607 5596 5602 5582 5576 5566 5561 5556 5549 5547 5545 5543 5541 5538 5536 5535 5535 5535 5535 5535 5536 5536 5535 5537 5537 5538 5540 5540 5540 5540 5543 5544
5649 5640 5636 5636 5634 5629 5625 5616 5605 5599 5594 5582 5583 5595 5592 5581 5569 5561 5553 5544 5540 5537 5536 5535 5533 5529 5526 5526 5526 5525 5524 5524 5523 5523 5524 5524 5526 5526 5527 5528 5528 5529 5531 5530
5635 5631 5627 5624 5627 5623 5619 5613 5605 5588 5583 5579 5567 5580 5583 5572 5558 5547 5539 5534 5529 5525 5525 5523 5522 5521 5520 5518 5518 5518 5517 5514 5513 5510 5509 5509 5509 5511 5511 5512 5513 5512 5514 5514
5636 5621 5612 5617 5619 5618 5612 5609 5599 5585 5571 5570 5560 5571 5571 5556 5545 5536 5527 5523 5518 5516 5515 5513 5514 5514 5512 5513 5512 5510 5508 5504 5503 5501 5497 5498 5497 5495 5496 5496 5494 5492 5491 5492
5633 5615 5620 5614 5617 5614 5602 5599 5595 5585 5568 5576 5571 5570 5566 5554 5540 5530 5522 5517 5515 5514 5508 5507 5507 5507 5507 5506 5502 5500 5498 5490 5489 5489 5491 5492 5490 5488 5487 5487 5485 5481 5480 5480
5626 5618 5610 5613 5611 5604 5604 5600 5596 5584 5583 5563 5569 5555 5553 5542 5528 5518 5509 5507 5507 5508 5505 5502 5500 5502 5501 5499 5496 5492 5487 5486 5485 5484 5484 5484 5484 5483 5481 5479 5479 5479 5478 5475
5611 5612 5604 5607 5607 5602 5597 5600 5592 5585 5575 5562 5556 5549 5542 5528 5521 5513 5504 5503 5500 5498 5496 5495 5496 5496 5493 5489 5488 5485 5483 5482 5479 5480 5481 5482 5481 5481 5478 5478 5478 5477 5475 5471
5610 5606 5599 5605 5596 5595 5594 5596 5584 5576 5566 5554 5540 5543 5529 5518 5514 5505 5496 5496 5493 5491 5489 5490 5490 5488 5483 5481 5479 5479 5477 5476 5476 5478 5479 5480 5479 5480 5479 5478 5477 5477 5476 5474
5600 5597 5593 5597 5588 5582 5588 5581 5575 5566 5559 5553 5543 5531 5521 5513 5509 5500 5493 5488 5485 5484 5483 5485 5482 5478 5475 5474 5475 5475 5473 5474 5475 5477 5479 5480 5481 5481 5480 5479 5478 5478 5478 5478
5599 5596 5587 5582 5580 5594 5578 5572 5559 5545 5549 5548 5535 5526 5518 5510 5500 5502 5494 5485 5477 5473 5474 5474 5471 5471 5469 5469 5470 5470 5470 5470 5473 5477 5479 5481 5481 5481 5481 5480 5480 5481 5483 5484
5587 5587 5588 5571 5571 5573 5577 5568 5559 5546 5537 5541 5530 5519 5511 5498 5489 5503 5495 5482 5476 5470 5467 5465 5465 5465 5464 5465 5464 5463 5464 5466 5470 5474 5476 5479 5480 5481 5481 5482 5483 5484 5487 5489
5587 5582 5585 5578 5571 5580 5573 5564 5551 5539 5542 5539 5526 5515 5504 5493 5489 5487 5484 5482 5475 5467 5464 5465 5464 5463 5461 5459 5456 5455 5456 5459 5464 5469 5472 5476 5479 5481 5483 5484 5486 5489 5492 5497
5591 5578 5576 5565 5563 5564 5570 5556 5543 5553 5544 5532 5524 5512 5500 5495 5490 5485 5479 5474 5469 5470 5468 5465 5464 5462 5459 5454 5450 5448 5449 5453 5457 5462 5467 5474 5479 5482 5483 5487 5491 5495 5498 5500
5580 5586 5580 5574 5579 5576 5568 5567 5560 5546 5538 5530 5518 5509 5498 5491 5487 5480 5475 5472 5467 5463 5465 5463 5461 5459 5455 5451 5447 5446 5449 5451 5456 5460 5465 5472 5479 5480 5486 5491 5497 5503 5506 5508
5581 5574 5578 5574 5580 5573 5567 5560 5552 5544 5534 5527 5516 5504 5494 5487 5479 5476 5471 5469 5464 5462 5463 5462 5460 5457 5455 5453 5450 5449 5452 5455 5459 5461 5466 5472 5477 5483 5488 5491 5499 5510 5515 5518
5584 5573 5576 5573 5576 5573 5568 5559 5553 5544 5534 5524 5514 5502 5490 5480 5475 5470 5467 5464 5460 5461 5462 5461 5459 5457 5456 5456 5456 5457 5461 5463 5464 5465 5469 5473 5479 5486 5492 5493 5496 5507 5511 5515
5578 5580 5573 5574 5579 5571 5567 5560 5550 5540 5534 5523 5510 5500 5488 5474 5470 5466 5462 5458 5459 5461 5463 5463 5462 5461 5461 5459 5461 5463 5465 5468 5470 5470 5473 5476 5483 5489 5493 5498 5501 5505 5510 5516